Weather History for Meacham, OR

Change the Weather History Date:

Monday, September 16, 2013

  Actual Average Record
Temperature  
Mean Temperature 54 °F -  
Max Temperature 68 °F 66 °F 89 °F (2008)
Min Temperature 42 °F 32 °F 28 °F (2006)
Degree Days  
Heating Degree Days 11    
Growing Degree Days 4 (Base 50)    
Moisture  
Dew Point 45 °F    
Average Humidity 69    
Maximum Humidity 90    
Minimum Humidity 47    
Precipitation  
Precipitation 0.00 in - - ()
Sea Level Pressure  
Sea Level Pressure 29.92 in    
Wind  
Wind Speed 1 mph (North)    
Max Wind Speed 7 mph    
Max Gust Speed -    
Visibility 10 miles    
Events      
Averages and records for this station are not official NWS values.
T = Trace of Precipitation, MM = Missing Value Source: NWS Daily Summary

Daily Weather History Graph

Daily Weather History Graph

Search for Another Location

Airport:

Trip Planner

Search our weather history database for the weather conditions in past years. The results will help you decide how hot, cold, wet, or windy it might be!

Date:

Astronomy

Sep. 16, 2013 Rise Set
Actual Time 6:33 AM PDT 7:02 PM PDT
Civil Twilight 6:04 AM PDT 7:31 PM PDT
Nautical Twilight 5:28 AM PDT 8:06 PM PDT
Astronomical Twilight 4:52 AM PDT 8:43 PM PDT
Moon 5:19 PM PDT (9/16) 3:18 AM PDT (9/16)
Length of Visible Light 13h 27m
Length of Day
12h 28m
Waxing Gibbous, 91% of the Moon is Illuminated
Sep 16
Waxing Gibbous
Sep 19
Full
Sep 26
Last Quarter
Oct 4
New
Oct 11
First Quarter

Hourly Weather History & Observations

Time (PDT) Temp. Dew Point Humidity Pressure Visibility Wind Dir Wind Speed Gust Speed Precip Events Conditions
12:13 AM 57.2 °F 51.8 °F 82% 29.91 in 10.0 mi Calm Calm - N/A   Scattered Clouds
12:56 AM 55.0 °F 48.9 °F 80% 29.82 in 10.0 mi Calm Calm - N/A   Clear
1:56 AM 51.1 °F 46.9 °F 86% 29.83 in 10.0 mi Calm Calm - N/A   Clear
2:56 AM 48.9 °F 45.0 °F 86% 29.84 in 10.0 mi Calm Calm - N/A   Clear
3:56 AM 46.9 °F 44.1 °F 90% 29.85 in 10.0 mi Calm Calm - N/A   Clear
4:56 AM 45.0 °F 41.0 °F 86% 29.87 in 10.0 mi Calm Calm - N/A   Clear
5:56 AM 43.0 °F 39.9 °F 89% 29.89 in 10.0 mi Calm Calm - N/A   Clear
6:56 AM 42.1 °F 39.0 °F 89% 29.93 in 10.0 mi Calm Calm - N/A   Clear
7:56 AM 46.9 °F 42.1 °F 83% 29.93 in 10.0 mi Calm Calm - N/A   Partly Cloudy
8:15 AM 48.2 °F 42.8 °F 82% 29.97 in 10.0 mi Calm Calm - N/A   Mostly Cloudy
8:49 AM 55.4 °F 48.2 °F 77% 29.98 in 10.0 mi Calm Calm - N/A   Scattered Clouds
8:56 AM 55.9 °F 46.9 °F 72% 29.93 in 10.0 mi Calm Calm - N/A   Partly Cloudy
9:20 AM 57.2 °F 46.4 °F 67% 29.98 in 10.0 mi Calm Calm - N/A   Mostly Cloudy
9:34 AM 57.2 °F 48.2 °F 72% 29.99 in 10.0 mi Variable 3.5 mph - N/A   Scattered Clouds
9:56 AM 57.9 °F 46.9 °F 67% 29.93 in 10.0 mi Calm Calm - N/A   Clear
10:37 AM 60.8 °F 46.4 °F 59% 29.98 in 10.0 mi Variable 3.5 mph - N/A   Mostly Cloudy
10:56 AM 63.0 °F 46.9 °F 56% 29.93 in 10.0 mi Calm Calm - N/A   Mostly Cloudy
11:14 AM 62.6 °F 46.4 °F 55% 29.98 in 10.0 mi Variable 4.6 mph - N/A   Scattered Clouds
11:44 AM 62.6 °F 46.4 °F 55% 29.98 in 10.0 mi Variable 6.9 mph - N/A   Mostly Cloudy
11:56 AM 62.1 °F 46.0 °F 56% 29.94 in 10.0 mi Calm Calm - N/A   Mostly Cloudy
12:06 PM 62.6 °F 46.4 °F 55% 29.99 in 10.0 mi Calm Calm - N/A   Overcast
12:56 PM 64.9 °F 46.0 °F 50% 29.93 in 10.0 mi Variable 4.6 mph - N/A   Clear
1:56 PM 66.9 °F 46.9 °F 49% 29.92 in 10.0 mi Calm Calm - N/A   Mostly Cloudy
2:56 PM 66.0 °F 46.9 °F 50% 29.92 in 10.0 mi Variable 3.5 mph - N/A   Mostly Cloudy
3:56 PM 66.0 °F 46.0 °F 48% 29.91 in 10.0 mi Calm Calm - N/A   Partly Cloudy
4:56 PM 64.9 °F 44.1 °F 47% 29.92 in 10.0 mi Variable 5.8 mph - N/A   Partly Cloudy
5:56 PM 63.0 °F 44.1 °F 50% 29.92 in 10.0 mi Calm Calm - N/A   Clear
6:56 PM 60.1 °F 43.0 °F 53% 29.93 in 10.0 mi Calm Calm - N/A   Clear
7:56 PM 55.0 °F 43.0 °F 64% 29.93 in 10.0 mi Calm Calm - N/A   Clear
8:56 PM 50.0 °F 42.1 °F 74% 29.93 in 10.0 mi Calm Calm - N/A   Clear
9:56 PM 46.9 °F 41.0 °F 80% 29.92 in 10.0 mi Calm Calm - N/A   Mostly Cloudy
10:56 PM 44.1 °F 39.0 °F 82% 29.91 in 10.0 mi Calm Calm - N/A   Clear
11:56 PM 42.1 °F 39.0 °F 89% 29.91 in 10.0 mi Calm Calm - N/A   Clear